Wind_Speed
22 27 30 26 21 22 19 18 20 24 27 25 23 21 24 28 29 32 34 35 35 38 39 41 44 45 47 48 49 48 45 42 44 47 46 44 41 41 41 40 41 44 43
26 25 30 25 22 24 24 26 30 28 21 18 21 23 25 26 27 30 32 36 39 40 42 44 46 47 48 47 45 44 45 44 44 46 48 51 48 46 46 46 46 48 48
19 19 22 25 27 29 28 23 21 20 21 23 26 27 27 29 30 33 36 37 38 40 42 45 46 46 45 45 44 43 43 44 46 48 50 53 56 58 54 51 52 52 53
18 18 23 28 26 19 18 19 21 24 28 30 28 25 24 24 27 31 35 40 42 43 43 43 43 44 45 46 45 46 48 50 51 51 51 51 53 56 61 58 56 53 52
16 17 19 16 14 18 22 25 26 29 29 28 28 29 33 39 41 40 39 40 42 42 42 44 45 45 45 46 48 49 50 51 52 52 51 49 46 45 45 54 52 47 40
15 13 11 11 11 16 20 21 25 25 26 28 29 30 36 42 44 45 44 42 40 40 41 41 43 45 46 46 48 50 50 51 50 48 45 43 41 38 37 37 38 37 35
13 12 14 14 21 26 19 23 27 32 34 36 39 44 46 49 51 50 45 40 39 40 41 44 44 44 47 48 50 51 48 45 44 39 35 33 30 30 34 34 34 32 30
19 17 18 21 25 30 31 31 35 36 39 43 44 51 50 51 50 44 40 41 43 45 47 47 46 47 50 52 50 46 43 39 35 34 32 30 31 34 35 34 31 33 31
11 13 16 19 21 26 30 33 38 42 41 45 40 52 55 50 45 39 39 43 47 48 48 50 50 52 52 50 45 41 35 34 34 35 35 35 34 35 33 34 33 33 41
12 13 15 19 25 32 33 36 40 43 44 45 51 53 50 45 40 41 42 42 45 48 50 52 52 50 46 43 41 38 35 35 35 31 33 39 37 31 30 28 30 33 34
9 15 22 25 28 31 35 38 43 50 49 45 50 46 41 40 39 36 40 43 44 46 45 47 44 42 43 41 38 38 36 37 38 38 38 37 36 30 34 29 34 36 38
22 25 21 26 29 35 38 43 49 45 44 45 48 42 39 43 45 41 52 44 39 38 39 35 34 36 38 39 36 35 36 37 37 35 35 34 36 37 38 38 40 40 38
16 19 23 26 30 37 44 44 43 45 46 45 41 42 43 45 43 47 51 41 44 44 40 37 35 34 34 34 34 36 36 34 34 34 36 37 39 40 40 40 40 38 38
21 24 26 32 40 44 45 42 42 43 41 42 43 44 46 49 49 43 47 46 47 46 45 38 33 31 32 36 38 36 34 32 32 33 35 37 39 40 40 40 40 38 36
24 27 35 42 48 46 42 40 39 39 41 43 45 44 49 47 45 51 43 45 46 50 47 31 31 31 33 40 37 32 30 31 33 35 37 39 40 40 40 41 40 39 38
30 39 43 44 41 42 41 40 41 42 41 40 47 45 50 53 50 46 47 53 54 40 27 25 30 33 37 37 33 32 31 33 35 38 40 39 38 38 37 37 36 37 38
38 40 41 39 40 38 40 41 40 39 42 46 49 53 53 44 43 44 51 51 33 21 29 31 32 33 34 33 32 32 33 36 38 39 38 38 38 37 37 35 34 33 33
43 39 37 36 36 38 38 39 42 45 46 47 46 43 37 39 44 47 45 34 25 30 26 30 31 32 30 32 32 32 35 37 39 38 37 36 36 36 34 33 32 30 30
35 35 33 35 37 37 39 41 42 43 42 42 39 39 42 46 45 42 38 33 31 25 26 28 31 29 30 31 32 33 35 38 37 35 35 35 33 29 27 27 26 24 20
33 32 34 36 36 37 38 39 41 42 41 38 38 40 44 39 36 33 27 25 28 23 27 31 28 29 30 31 32 35 36 38 37 37 32 27 24 23 23 23 23 22 19
30 32 34 36 37 36 37 39 41 43 42 39 37 38 34 35 32 25 29 26 21 24 28 24 26 27 30 31 32 34 36 38 37 36 29 24 22 20 19 18 19 19 17
29 33 35 36 35 35 38 41 42 42 40 36 35 35 32 32 29 25 24 26 23 23 21 22 25 27 29 29 30 32 34 35 36 32 25 23 21 20 19 18 16 16 15
32 34 35 35 33 35 38 41 39 40 37 36 36 33 31 31 30 28 27 25 20 19 20 22 24 26 27 28 29 30 32 32 32 27 23 22 21 20 18 16 15 15 13
34 36 36 34 34 36 39 38 39 39 37 37 36 32 30 30 28 24 23 17 16 18 20 22 24 25 26 27 28 28 29 27 27 22 20 20 20 19 18 16 15 13 11
35 35 35 34 35 36 39 39 39 39 38 36 34 32 31 26 23 20 15 14 15 18 21 23 24 24 25 26 27 28 29 30 29 24 20 19 18 17 16 15 13 12 10
35 35 33 33 34 36 39 40 40 40 36 33 31 30 26 22 19 14 15 15 16 18 21 23 23 24 24 24 25 26 27 29 28 24 20 19 18 17 16 13 10 8 8
Wind_Direction
222 214 213 220 227 244 246 261 272 283 290 295 302 307 302 300 297 293 294 294 288 287 288 290 293 296 296 297 297 295 293 291 289 291 289 288 286 283 281 280 277 274 273
225 221 218 231 254 257 266 274 279 286 290 295 299 298 297 296 292 286 284 282 283 288 292 295 295 296 294 292 290 289 291 293 294 292 292 291 286 282 282 280 277 275 274
228 229 242 253 259 264 269 270 274 280 289 294 299 301 301 297 293 292 292 293 294 295 294 293 291 290 289 291 293 297 298 297 296 294 293 293 291 290 286 281 278 275 274
240 249 257 262 268 270 272 271 272 278 287 296 300 299 297 295 293 290 288 290 292 292 293 294 295 296 297 300 300 298 297 298 299 299 296 295 294 293 289 287 285 280 276
262 261 261 261 278 295 297 293 289 290 294 299 304 313 319 321 318 308 301 299 298 298 300 301 298 298 298 296 295 297 299 299 298 297 298 297 295 292 291 290 288 285 283
278 280 275 277 316 314 306 309 314 313 315 315 316 319 322 323 322 318 310 302 298 299 298 296 294 294 295 295 296 295 296 297 298 299 298 296 295 294 292 290 285 286 284
295 288 281 260 313 326 321 327 324 322 326 326 325 325 322 324 323 320 312 306 304 301 298 296 295 295 296 298 300 300 301 301 302 300 297 291 289 295 297 292 292 289 276
305 303 303 311 321 324 321 316 323 319 320 323 323 326 320 317 316 314 307 305 304 302 301 301 301 302 302 303 302 302 302 303 303 301 297 290 295 303 298 293 290 284 282
267 295 306 303 300 304 304 302 311 316 314 316 310 319 315 314 310 304 302 303 302 302 301 300 300 301 301 301 301 300 298 297 296 292 291 291 295 297 290 287 287 281 278
278 285 286 288 291 297 302 305 306 307 310 310 309 313 312 311 310 309 307 305 302 299 299 299 300 302 303 303 302 302 303 301 297 295 291 292 296 288 285 281 278 277 279
233 251 280 279 289 295 302 305 308 308 310 307 309 312 312 312 308 306 312 307 301 302 305 304 310 311 309 305 302 300 296 294 295 298 299 300 301 293 291 284 280 275 277
272 294 274 291 295 298 299 305 308 311 309 308 308 312 313 313 303 302 317 314 314 314 314 321 324 320 311 304 301 302 302 302 302 301 299 296 295 292 285 283 278 278 278
272 277 288 290 291 298 303 309 308 307 305 306 311 311 315 318 303 302 322 318 321 315 312 317 323 318 312 311 309 309 305 301 298 294 293 291 291 291 291 288 285 281 278
273 275 282 298 310 313 310 308 309 309 313 315 315 314 315 319 317 312 323 313 311 305 304 298 315 316 322 320 313 306 302 302 301 299 297 296 295 293 291 287 285 283 278
265 279 288 301 312 311 311 311 311 312 315 320 318 313 313 311 310 309 315 319 308 308 298 324 315 322 319 314 311 307 307 306 306 305 303 300 298 294 291 288 286 283 279
291 304 306 310 311 313 313 314 318 322 321 310 311 310 312 312 313 311 317 316 316 294 311 315 325 320 316 314 309 309 311 312 312 310 308 305 301 296 292 288 284 281 279
308 309 311 311 313 312 315 323 322 314 308 307 304 305 310 315 314 313 314 314 306 329 327 330 323 313 314 311 311 314 315 316 315 312 309 306 302 298 295 290 284 280 277
308 307 309 310 311 320 323 317 311 307 305 308 309 311 316 316 310 306 307 310 308 319 319 320 316 314 314 313 313 313 315 317 316 314 312 307 302 299 297 292 286 281 275
304 307 312 320 325 323 316 311 307 308 312 313 317 319 318 313 312 313 313 316 322 321 320 313 314 316 314 313 314 315 317 318 317 317 314 309 306 305 301 297 296 296 290
313 315 319 322 321 314 311 312 312 315 318 322 320 316 314 318 319 320 317 311 314 326 318 311 317 316 314 314 317 318 319 320 321 324 322 316 311 310 307 303 299 299 295
309 318 321 318 316 315 315 319 319 319 323 322 319 318 320 322 329 318 313 323 323 312 307 316 315 314 315 318 319 320 324 325 326 328 326 324 323 321 316 310 305 303 304
318 319 317 317 318 320 322 321 321 322 324 321 318 317 315 318 323 320 315 318 315 312 315 316 317 317 318 320 321 325 327 328 328 329 328 329 328 326 323 318 313 310 312
318 319 318 319 322 324 324 324 325 323 322 320 320 317 313 316 313 308 311 312 312 313 315 318 318 319 320 322 326 328 330 330 331 331 331 332 333 332 331 329 325 321 318
319 319 320 321 323 325 328 326 325 323 321 320 321 318 314 315 312 308 308 307 313 313 316 319 321 322 322 325 327 328 333 336 339 334 331 331 334 334 335 335 335 337 333
317 318 320 320 320 324 328 326 326 325 322 318 316 317 316 315 313 309 303 306 310 313 319 322 323 324 324 327 329 334 338 343 347 343 338 335 333 332 333 334 341 351 354
317 318 317 314 316 323 326 327 327 327 324 320 315 312 312 313 312 305 306 311 315 316 320 324 325 325 328 329 332 337 341 345 347 345 341 337 335 334 336 339 343 349 3
Height
3163 3163 3165 3166 3168 3169 3169 3167 3166 3164 3164 3163 3160 3159 3156 3152 3150 3147 3143 3140 3136 3133 3130 3128 3125 3121 3117 3112 3107 3103 3099 3096 3090 3085 3083 3082 3081 3079 3078 3077 3073 3071 3070
3161 3163 3164 3166 3169 3167 3168 3166 3163 3161 3159 3158 3157 3155 3152 3149 3146 3142 3138 3136 3133 3129 3125 3120 3115 3110 3105 3100 3096 3091 3088 3084 3079 3075 3071 3065 3068 3068 3067 3066 3064 3061 3059
3162 3164 3165 3165 3165 3164 3164 3162 3160 3157 3156 3155 3153 3150 3148 3145 3142 3137 3133 3129 3125 3120 3116 3110 3104 3098 3093 3089 3084 3080 3076 3072 3068 3065 3061 3054 3050 3046 3050 3052 3049 3047 3045
3162 3162 3163 3162 3161 3160 3160 3160 3159 3157 3155 3152 3149 3146 3142 3140 3136 3132 3127 3121 3116 3111 3107 3101 3095 3089 3083 3078 3073 3069 3065 3060 3054 3051 3047 3043 3037 3033 3029 3031 3030 3030 3028
3162 3161 3160 3160 3160 3160 3158 3155 3154 3151 3148 3145 3140 3136 3132 3127 3124 3120 3116 3111 3105 3100 3096 3091 3085 3079 3075 3070 3064 3058 3053 3048 3044 3039 3036 3031 3025 3021 3017 3014 3012 3012 3013
3158 3158 3158 3158 3158 3156 3153 3149 3145 3142 3140 3138 3134 3130 3126 3120 3115 3110 3105 3100 3095 3092 3086 3080 3074 3068 3063 3058 3053 3048 3043 3038 3032 3027 3024 3019 3014 3009 3006 3004 3004 3000 3001
3157 3157 3156 3153 3151 3149 3146 3144 3140 3136 3134 3131 3127 3122 3116 3110 3104 3099 3094 3090 3085 3080 3074 3068 3063 3057 3052 3046 3041 3035 3029 3024 3020 3016 3011 3009 3006 3003 2999 2994 2992 2990 2992
3150 3151 3149 3147 3144 3142 3141 3138 3136 3133 3129 3125 3120 3114 3108 3102 3097 3091 3085 3079 3073 3067 3061 3056 3051 3045 3039 3034 3029 3023 3018 3012 3009 3006 3002 3000 2997 2995 2992 2987 2985 2981 2980
3150 3149 3145 3143 3141 3138 3136 3133 3129 3125 3120 3116 3111 3107 3101 3094 3089 3084 3078 3072 3065 3057 3051 3045 3041 3035 3028 3022 3018 3014 3008 3004 3001 2998 2994 2992 2989 2986 2982 2979 2977 2974 2970
3146 3146 3144 3141 3138 3134 3131 3127 3123 3120 3115 3110 3104 3099 3091 3084 3079 3075 3069 3063 3056 3049 3042 3036 3030 3024 3019 3013 3008 3004 2999 2995 2991 2988 2985 2982 2979 2975 2972 2970 2968 2966 2962
3143 3140 3138 3135 3133 3130 3127 3122 3117 3112 3107 3102 3095 3088 3082 3076 3071 3065 3061 3055 3047 3040 3033 3026 3020 3015 3011 3006 2999 2995 2991 2986 2982 2978 2974 2970 2967 2966 2963 2962 2959 2956 2954
3140 3136 3135 3133 3130 3126 3121 3116 3110 3103 3098 3092 3085 3080 3074 3068 3061 3055 3050 3043 3035 3029 3024 3018 3011 3006 3002 2997 2991 2986 2981 2977 2973 2969 2966 2962 2959 2956 2953 2950 2947 2945 2944
3136 3134 3132 3129 3125 3120 3114 3106 3100 3095 3089 3082 3077 3070 3064 3057 3050 3044 3038 3032 3027 3021 3016 3010 3004 2999 2994 2989 2983 2978 2972 2968 2964 2960 2956 2952 2948 2945 2941 2938 2935 2933 2932
3132 3129 3126 3122 3117 3111 3106 3099 3093 3085 3078 3072 3065 3059 3053 3046 3040 3034 3030 3024 3016 3011 3006 3001 2996 2990 2985 2980 2974 2969 2964 2960 2956 2952 2948 2943 2938 2934 2930 2926 2924 2922 2920
3126 3123 3119 3114 3108 3102 3096 3090 3084 3078 3071 3064 3057 3052 3046 3037 3032 3027 3019 3013 3007 3000 2994 2990 2988 2982 2977 2972 2965 2961 2957 2952 2948 2943 2938 2933 2928 2923 2919 2914 2912 2910 2908
3120 3114 3109 3104 3099 3093 3086 3081 3075 3068 3061 3055 3048 3040 3034 3028 3021 3015 3010 3003 2996 2990 2987 2984 2979 2975 2969 2963 2958 2954 2950 2944 2939 2933 2928 2922 2917 2911 2907 2904 2901 2898 2896
3109 3105 3101 3096 3091 3085 3078 3071 3064 3059 3053 3048 3040 3032 3026 3019 3013 3007 3000 2995 2989 2982 2980 2976 2973 2968 2962 2956 2951 2946 2941 2936 2930 2924 2917 2911 2906 2900 2896 2893 2890 2888 2886
3102 3098 3093 3089 3084 3076 3068 3063 3057 3050 3044 3037 3030 3022 3016 3010 3005 2998 2991 2986 2981 2976 2974 2971 2966 2961 2955 2950 2945 2940 2935 2928 2922 2915 2908 2901 2895 2890 2886 2882 2879 2877 2876
3094 3090 3085 3078 3072 3066 3060 3055 3048 3041 3036 3029 3021 3013 3006 2999 2993 2987 2982 2979 2975 2971 2967 2964 2959 2953 2949 2945 2939 2934 2928 2921 2914 2908 2901 2892 2885 2881 2877 2873 2870 2869 2868
3085 3080 3076 3071 3066 3060 3053 3046 3038 3031 3025 3019 3012 3005 2997 2990 2985 2979 2975 2972 2969 2965 2961 2957 2952 2948 2944 2939 2933 2926 2920 2914 2906 2899 2892 2885 2880 2875 2871 2867 2864 2862 2861
3079 3074 3069 3063 3057 3050 3043 3036 3028 3021 3015 3010 3004 2997 2990 2984 2978 2973 2969 2965 2962 2960 2956 2951 2947 2943 2939 2933 2927 2921 2913 2905 2898 2891 2884 2879 2875 2870 2867 2863 2860 2857 2855
3072 3067 3061 3055 3049 3042 3034 3027 3020 3013 3008 3002 2996 2989 2984 2978 2974 2969 2965 2961 2957 2954 2950 2947 2943 2939 2933 2928 2922 2916 2908 2900 2892 2885 2880 2875 2871 2867 2863 2859 2856 2853 2851
3064 3058 3052 3046 3040 3033 3026 3019 3012 3006 2999 2993 2987 2982 2976 2972 2967 2963 2959 2955 2952 2949 2946 2943 2939 2934 2929 2923 2917 2911 2904 2896 2888 2881 2876 2872 2868 2864 2860 2857 2853 2850 2848
3055 3049 3043 3037 3032 3026 3020 3012 3005 2998 2991 2985 2979 2974 2969 2965 2960 2957 2953 2950 2948 2945 2942 2939 2935 2930 2924 2919 2913 2907 2901 2894 2886 2879 2874 2870 2866 2862 2858 2855 2852 2849 2846
3046 3041 3035 3030 3024 3018 3012 3005 2998 2990 2983 2977 2972 2967 2962 2958 2955 2952 2949 2947 2945 2942 2938 2935 2930 2926 2920 2915 2908 2902 2896 2888 2882 2876 2872 2868 2864 2861 2858 2854 2851 2848 2846
3038 3033 3028 3023 3017 3011 3005 2997 2990 2983 2976 2970 2965 2961 2957 2953 2950 2948 2945 2943 2940 2938 2934 2930 2926 2921 2916 2911 2905 2899 2893 2886 2880 2875 2870 2866 2863 2859 2856 2853 2850 2849 2847